Terminal Aerodrome Forecast
Issued by NWS St Louis, MO

Home | Current Version | Previous Version | Text Only | Print | Product List | Glossary On
Versions: 1 2 3 4 5 6 7 8 9 10 11 12 13 14 15 16
000
FTUS43 KLSX 281124
TAFCOU
TAF
KCOU 281124Z 2812/2912 32007KT P6SM SCT250
     FM281500 36011KT P6SM FEW200
     FM281700 36012KT P6SM FEW040=

USA.gov is the U.S. government's official web portal to all federal, state and local government web resources and services.